Morrisville, VT

9:34 PM EST on November 16, 2019 (GMT -0500)
Morrisville Stowe State

Weather History for KMVL - September, 2019

Change the Weather History Date:

Sunday, September 8, 2019

  Actual Average Record
Temperature  
Mean Temperature 57 °F 61 °F  
Max Temperature 63 °F 73 °F 91 °F (2002)
Min Temperature 51 °F 49 °F 36 °F (2018)
Degree Days  
Heating Degree Days 8 5  
Month to date heating degree days 40 36  
Since 1 July heating degree days 105 131  
Cooling Degree Days 0 1  
Month to date cooling degree days 1 8  
Year to date cooling degree days 244 255  
Growing Degree Days 7 (Base 50)    
Moisture  
Dew Point 50 °F    
Average Humidity 83    
Maximum Humidity 97    
Minimum Humidity 56    
Precipitation  
Precipitation 0.04 in 0.09 in 0.77 in (1999)
Month to date precipitation 1.89 0.76  
Year to date precipitation 29.12 24.52  
Sea Level Pressure  
Sea Level Pressure 29.98 in    
Wind  
Wind Speed 2 mph ()    
Max Wind Speed 14 mph    
Max Gust Speed 22 mph    
Visibility 9.9 miles    
Events Rain    
T = Trace of Precipitation, MM = Missing Value Source: Averaged Metar Reports

Daily Weather History Graph

Daily Weather History Graph

Search for Another Location

Airport or City:

Astronomy

Sep. 08, 2019 Rise Set
Actual Time 6:20 AM EDT 7:14 PM EDT
Civil Twilight 5:51 AM EDT 7:44 PM EDT
Nautical Twilight 5:15 AM EDT 8:19 PM EDT
Astronomical Twilight 4:38 AM EDT 8:56 PM EDT
Moon 4:32 PM EDT (9/8) 12:46 AM EDT (9/8)
Length of Visible Light 13h 52m
Length of Day
12h 53m
Waxing Gibbous, 75% of the Moon is Illuminated
Sep 8
Waxing Gibbous
Sep 14
Full
Sep 21
Last Quarter
Sep 28
New
Oct 5
First Quarter

Hourly Weather History & Observations

Time (EDT) Temp. Dew Point Humidity Pressure Visibility Wind Dir Wind Speed Gust Speed Precip Events Conditions
12:11 AM 55.0 °F 54.0 °F 96% 29.80 in 10.0 mi Calm Calm - 0.02 in Rain Light Rain
12:18 AM 55.0 °F 54.0 °F 96% 29.80 in 10.0 mi Calm Calm - 0.02 in Rain Light Rain
12:28 AM 55.0 °F 54.0 °F 96% 29.80 in 10.0 mi Calm Calm - 0.02 in   Overcast
12:54 AM 55.0 °F 54.0 °F 96% 29.81 in 10.0 mi Calm Calm - 0.02 in   Overcast
1:27 AM 55.0 °F 54.0 °F 96% 29.82 in 10.0 mi Calm Calm - N/A   Overcast
1:54 AM 54.0 °F 53.1 °F 97% 29.83 in 8.0 mi Calm Calm - 0.00 in Rain Light Rain
2:54 AM 54.0 °F 52.0 °F 93% 29.84 in 10.0 mi Calm Calm - 0.01 in   Overcast
3:54 AM 53.1 °F 52.0 °F 96% 29.84 in 10.0 mi Calm Calm - N/A   Mostly Cloudy
4:30 AM 55.0 °F 52.0 °F 89% 29.85 in 10.0 mi WNW 3.5 mph - 0.00 in   Overcast
4:54 AM 55.0 °F 52.0 °F 89% 29.86 in 10.0 mi West 3.5 mph - 0.00 in Rain Light Rain
5:12 AM 55.9 °F 51.1 °F 84% 29.87 in 10.0 mi Variable 4.6 mph - 0.00 in Rain Light Rain
5:54 AM 54.0 °F 52.0 °F 93% 29.89 in 10.0 mi West 4.6 mph - 0.00 in   Overcast
6:54 AM 55.0 °F 51.1 °F 86% 29.91 in 10.0 mi NW 5.8 mph - 0.01 in   Overcast
7:54 AM 57.0 °F 50.0 °F 77% 29.94 in 10.0 mi NW 10.4 mph - N/A   Mostly Cloudy
8:54 AM 57.0 °F 48.9 °F 74% 29.97 in 10.0 mi Variable 4.6 mph - N/A   Scattered Clouds
9:54 AM 55.9 °F 48.0 °F 75% 30.00 in 10.0 mi Variable 5.8 mph - N/A   Mostly Cloudy
10:54 AM 57.0 °F 48.0 °F 72% 30.02 in 10.0 mi Variable 5.8 mph - N/A   Mostly Cloudy
11:54 AM 57.0 °F 48.0 °F 72% 30.03 in 10.0 mi NNW 8.1 mph - N/A   Mostly Cloudy
12:54 PM 60.1 °F 46.9 °F 62% 30.04 in 10.0 mi NNW 9.2 mph - N/A   Clear
1:54 PM 62.1 °F 46.9 °F 58% 30.05 in 10.0 mi West 9.2 mph - N/A   Partly Cloudy
2:54 PM 61.0 °F 46.9 °F 60% 30.06 in 10.0 mi NNW 9.2 mph - N/A   Mostly Cloudy
3:54 PM 61.0 °F 48.0 °F 62% 30.07 in 10.0 mi Variable 3.5 mph - N/A   Mostly Cloudy
4:54 PM 61.0 °F 48.0 °F 62% 30.09 in 10.0 mi Variable 4.6 mph - N/A   Partly Cloudy
5:54 PM 60.1 °F 48.0 °F 64% 30.10 in 10.0 mi NW 4.6 mph - N/A   Partly Cloudy
6:54 PM 54.0 °F 50.0 °F 86% 30.13 in 10.0 mi SW 3.5 mph - N/A   Clear
7:54 PM 52.0 °F 48.9 °F 89% 30.15 in 10.0 mi Calm Calm - N/A   Mostly Cloudy
8:54 PM 52.0 °F 50.0 °F 93% 30.17 in 10.0 mi Calm Calm - N/A   Overcast
9:54 PM 54.0 °F 50.0 °F 86% 30.19 in 10.0 mi Calm Calm - N/A   Overcast
10:54 PM 53.1 °F 50.0 °F 89% 30.20 in 10.0 mi Calm Calm - N/A   Overcast
11:54 PM 53.1 °F 50.0 °F 89% 30.22 in 10.0 mi Calm Calm - N/A   Overcast